Location: ??????????
(48.4699°N, 37.9573°E)
Time: 20:15:19
(UTC+00:00)

Cosmos 1818 - Pass Details

Date: 20 January 2021
Orbit: 773 x 800 km, 65.0° (Epoch: 02 March)

Event Time Altitude Azimuth Distance (km) Brightness Sun altitude
Rises 16:45:34 0° 225° (SW) 3,269 7.4 -25.7°
Reaches altitude 10° 16:47:58 10° 227° (SW) 2,348 6.6 -26.1°
Maximum altitude 16:53:22 69° 311° (NW) 852 3.7 -27.0°
Enters shadow 16:54:12 59° 1° (N) 921 3.8 -27.1°
